Location: Cactus School
(34.5700°N, 118.0931°W)
Time: 11:15:33
(UTC-07:00)

Transit 2A - Visible Passes

Search period start: 23 April 2024 00:00
Search period end: 03 May 2024 00:00
Orbit: 596 x 956 km, 66.7° (Epoch: 23 April)

Date Brightness Start Highest point End Pass type
(mag) Time Alt. Az. Time Alt. Az. Time Alt. Az.
24 Apr 6.3 05:31:15 10° S 05:35:29 56° ESE 05:39:57 10° NE visible
25 Apr 7.2 04:56:37 10° S 05:00:28 32° ESE 05:04:31 10° NE visible
26 Apr 7.9 04:22:25 10° SSE 04:25:32 19° ESE 04:28:45 10° ENE visible
27 Apr 8.3 03:49:17 10° ESE 03:50:38 11° ESE 03:52:01 10° E visible
27 Apr 5.9 05:28:49 10° SW 05:33:03 51° WNW 05:37:35 10° NNE visible
28 Apr 5.5 04:54:36 17° SSW 04:57:54 87° WNW 05:02:33 10° NNE visible
29 Apr 6.1 04:20:47 28° S 04:22:49 55° ESE 04:27:20 10° NE visible
30 Apr 6.9 03:46:54 29° SE 03:47:48 32° ESE 03:51:52 10° NE visible
30 Apr 7.2 05:27:33 10° WSW 05:30:56 21° NW 05:34:29 10° N visible
01 May 7.7 03:12:56 19° ESE 03:12:56 19° ESE 03:16:05 10° ENE visible
01 May 6.6 04:53:22 20° WSW 04:55:36 32° WNW 04:59:50 10° N visible
02 May 8.4 02:38:55 10° E 02:38:55 10° E 02:39:15 10° E visible
02 May 5.8 04:19:21 43° WSW 04:20:22 53° WNW 04:24:57 10° NNE visible
